Location: Baumgarten
(49.0970°N, 12.7493°E)
Time: 08:37:25
(UTC+00:00)

ALOS 2 - Pass Details

Date: 05 July 2020
Orbit: 630 x 632 km, 97.9° (Epoch: 04 August)

Event Time Altitude Azimuth Distance (km) Brightness Sun altitude
Exits shadow 21:58:06 24° 128° (SE) 1,298 3.7 -16.3°
Maximum altitude 22:00:20 45° 69° (ENE) 865 3.3 -16.4°
Drops below altitude 10° 22:04:32 10° 357° (N) 2,026 6.4 -16.6°
Sets 22:06:48 0° 352° (N) 2,938 7.8 -16.7°
